Weather History for KFOK - July, 2013

Change the Weather History Date:

Tuesday, July 23, 2013

  Actual Average Record
Temperature  
Mean Temperature 76 °F -  
Max Temperature 86 °F 77 °F 95 °F (2011)
Min Temperature 69 °F 60 °F 55 °F (2000)
Cooling Degree Days 10    
Growing Degree Days 26 (Base 50)    
Moisture  
Dew Point 72 °F    
Average Humidity 87    
Maximum Humidity 100    
Minimum Humidity 63    
Precipitation  
Precipitation 0.71 in - - ()
Sea Level Pressure  
Sea Level Pressure 29.67 in    
Wind  
Wind Speed 7 mph (SSW)    
Max Wind Speed 18 mph    
Max Gust Speed 25 mph    
Visibility 8 miles    
Events Rain    
Averages and records for this station are not official NWS values.
T = Trace of Precipitation, MM = Missing Value Source: NWS Daily Summary

Daily Weather History Graph

Daily Weather History Graph

Search for Another Location

Airport or City:

Trip Planner

Search our weather history database for the weather conditions in past years. The results will help you decide how hot, cold, wet, or windy it might be!

Date:

Astronomy

Jul. 23, 2013 Rise Set
Actual Time 5:38 AM EDT 8:14 PM EDT
Civil Twilight 5:06 AM EDT 8:46 PM EDT
Nautical Twilight 4:27 AM EDT 9:25 PM EDT
Astronomical Twilight 3:42 AM EDT 10:10 PM EDT
Moon 8:39 PM EDT (7/23) 6:44 AM EDT (7/23)
Length of Visible Light 15h 39m
Length of Day
14h 36m
Full, 99% of the Moon is Illuminated
Jul 23
Full
Jul 29
Last Quarter
Aug 6
New
Aug 14
First Quarter
Aug 20
Full

Hourly Weather History & Observations

Time (EDT) Temp. Heat Index Dew Point Humidity Pressure Visibility Wind Dir Wind Speed Gust Speed Precip Events Conditions
12:53 AM 75.0 °F - 73.0 °F 94% 29.82 in 10.0 mi ESE 4.6 mph - N/A   Overcast
1:53 AM 75.9 °F - 73.9 °F 94% 29.80 in 10.0 mi Calm Calm - N/A   Overcast
2:53 AM 75.9 °F - 75.0 °F 97% 29.77 in 10.0 mi South 4.6 mph - N/A   Overcast
3:53 AM 75.9 °F - 75.0 °F 97% 29.75 in 10.0 mi South 5.8 mph - N/A   Overcast
4:02 AM 75.2 °F - 75.2 °F 100% 29.74 in 10.0 mi South 5.8 mph - N/A   Overcast
4:53 AM 75.9 °F - 75.0 °F 97% 29.73 in 10.0 mi South 5.8 mph - 0.00 in Rain Light Rain
5:48 AM 75.2 °F - 73.4 °F 94% 29.73 in 10.0 mi South 4.6 mph - 0.00 in Rain Light Rain
5:53 AM 75.9 °F - 73.9 °F 94% 29.73 in 10.0 mi South 5.8 mph - 0.00 in Rain Light Rain
6:53 AM 75.9 °F - 73.9 °F 94% 29.71 in 10.0 mi South 4.6 mph - 0.02 in Rain Light Rain
7:53 AM 75.9 °F - 75.0 °F 97% 29.70 in 1.5 mi South 6.9 mph - 0.02 in   Overcast
8:00 AM 75.2 °F - 75.2 °F 100% 29.70 in 10.0 mi South 8.1 mph - N/A   Overcast
8:09 AM 75.2 °F - 75.2 °F 100% 29.70 in 1.5 mi South 5.8 mph - N/A   Overcast
8:53 AM 77.0 °F - 75.0 °F 94% 29.68 in 1.5 mi South 5.8 mph - N/A   Overcast
9:00 AM 77.0 °F - 75.2 °F 94% 29.68 in 3.0 mi South 8.1 mph - N/A   Overcast
9:23 AM 78.8 °F - 75.2 °F 89% 29.66 in 3.0 mi South 6.9 mph 16.1 mph N/A   Overcast
9:53 AM 79.0 °F - 75.9 °F 90% 29.66 in 3.0 mi SSW 8.1 mph - N/A   Overcast
10:29 AM 80.6 °F 85.4 °F 73.4 °F 79% 29.66 in 10.0 mi SW 12.7 mph 20.7 mph N/A   Scattered Clouds
10:53 AM 81.0 °F 85.8 °F 73.0 °F 77% 29.67 in 10.0 mi SW 15.0 mph 21.9 mph N/A   Clear
11:53 AM 82.0 °F 86.3 °F 71.1 °F 69% 29.66 in 10.0 mi SW 13.8 mph 21.9 mph N/A   Scattered Clouds
12:53 PM 82.9 °F 86.5 °F 69.1 °F 63% 29.65 in 10.0 mi SW 15.0 mph - N/A   Clear
1:53 PM 82.0 °F 85.5 °F 69.1 °F 65% 29.63 in 10.0 mi SW 12.7 mph 21.9 mph N/A   Clear
2:53 PM 82.9 °F 87.0 °F 70.0 °F 65% 29.62 in 10.0 mi WSW 18.4 mph 23.0 mph N/A   Clear
3:53 PM 80.1 °F 83.8 °F 72.0 °F 76% 29.62 in - SW 12.7 mph 21.9 mph N/A   Clear
4:53 PM 82.0 °F 87.4 °F 73.0 °F 74% 29.60 in 10.0 mi SSW 10.4 mph 17.3 mph N/A   Mostly Cloudy
5:53 PM 81.0 °F 85.8 °F 73.0 °F 77% 29.60 in 10.0 mi SSW 12.7 mph 20.7 mph N/A   Clear
6:53 PM 79.0 °F - 72.0 °F 79% 29.60 in 9.0 mi SW 8.1 mph 17.3 mph N/A   Overcast
7:39 PM 78.8 °F - 71.6 °F 78% 29.63 in 10.0 mi NW 3.5 mph - N/A   Overcast
7:53 PM 79.0 °F - 71.1 °F 77% 29.64 in 10.0 mi NNW 5.8 mph - N/A   Overcast
8:10 PM 75.2 °F - 68.0 °F 78% 29.64 in 1.8 mi WNW 6.9 mph - 0.11 in Rain Heavy Rain
8:31 PM 71.6 °F - 69.8 °F 94% 29.63 in 3.0 mi Calm Calm - 0.32 in Rain Light Rain
8:53 PM 73.0 °F - 71.1 °F 93% 29.63 in 10.0 mi Calm Calm - 0.32 in   Mostly Cloudy
9:53 PM 73.0 °F - 71.1 °F 93% 29.63 in 10.0 mi SW 3.5 mph - N/A   Scattered Clouds
10:49 PM 69.8 °F - 66.2 °F 88% 29.64 in 2.0 mi West 15.0 mph 25.3 mph 0.23 in Rain Heavy Rain
10:53 PM 70.0 °F - 66.9 °F 90% 29.64 in 2.0 mi West 11.5 mph - 0.26 in Rain Heavy Rain
11:11 PM 69.8 °F - 68.0 °F 94% 29.63 in 10.0 mi Variable 5.8 mph - 0.09 in Rain Light Rain
11:53 PM 70.0 °F - 66.9 °F 90% 29.64 in 10.0 mi Calm Calm - 0.09 in   Mostly Cloudy